Tracking 35237 objects as of 5-Sep-2026
HD Live streaming from Space Station
objects crossing your sky now

STARLINK-35573

Track STARLINK-35573 now!
10-day predictions
STARLINK-35573 is classified as:


NORAD ID: 66116
Int'l Code: 2025-237C
Launch date: October 22, 2025
Source: United States (US)
Launch site: AIR FORCE WESTERN TEST RANGE (AFWTR)
Your satellite tracking list
Your tracking list is empty




NASA's NSSDC Master Catalog

Two Line Element Set (TLE):
1 66116U 25237C   26247.68330097  .00006775  00000-0  21148-3 0  9990
2 66116  53.1587 285.4946 0001570 113.0087 247.1081 15.34399543 50051
Source of the keplerian elements: AFSPC